{"data":{"norad_id":56336,"intl_designator":"2023-058V","name":"STARLINK-5562","alt_names":[],"object_type":"PAYLOAD","status":"ACTIVE","operator":null,"country":"US","launch_date":"2023-04-27","launch_site_code":"AFWTR","launch_vehicle":null,"mission":null,"orbit_class":"UNKNOWN","rcs_meters":null,"size_class":null,"mass_kg":null,"dimensions":null,"purposes":["comms"],"wikipedia_slug":null,"has_3d_model":false,"image_url":null,"decayed_at":null,"tle_current":{"epoch":"2026-09-20T22:00:03.000096Z","epoch_age_seconds":72804,"freshness":"FRESH","line1":"1 56336U 23058V   26263.91670139  .00080965  00000+0  39265-2 0  9990","line2":"2 56336  97.2855 257.7835 0001122  85.9771  32.2443 15.18161688  5739","mean_motion":15.18161688,"eccentricity":0.0001122,"inclination_deg":97.2855,"raan_deg":257.7835,"arg_perigee_deg":85.9771,"mean_anomaly_deg":32.2443,"bstar":0.0039265,"rev_number":573,"period_min":94.851557076047,"perigee_km":510.6236021838,"apogee_km":512.16961352541,"semimajor_km":6889.5336078546,"source":"CELESTRAK","updated_at":"2026-09-21T09:00:33.404230Z"}}}